Regional Weather Roundup
Issued by NWS

Home | Current Version | Previous Version | Graphics & Text | Print | Product List | Glossary On
Versions: 1 2 3 4 5 6 7 8 9 10 11 12 13 14 15 16 17 18 19 20 21 22 23 24 25 26 27 28 29 30 31 32 33 34 35 36 37 38 39 40 41 42 43 44 45 46 47 48 49 50
000
ASUS43 KOAX 220502
RWRNE

WEATHER ROUNDUP FOR NEBRASKA
NATIONAL WEATHER SERVICE OMAHA NE
1200 AM CDT MON SEP 22 2014

NOTES: SATELLITE DATA IS BEING USED TO AUGMENT CLOUD COVER ABOVE
       12000 FEET.
       "FAIR" INDICATES FEW OR NO CLOUDS BELOW 12,000 FEET WITH NO
       SIGNIFICANT WEATHER AND/OR OBSTRUCTIONS TO VISIBILITY.

  * THESE STATIONS DO NOT REPORT WEATHER SUCH AS RAIN...SNOW OR FOG.

NEZ001>004-019>022-054>056-220600-
NEBRASKA PANHANDLE

CITY           SKY/WX    TMP DP  RH WIND       PRES   REMARKS
SCOTTSBLUFF    MOCLDY    58  43  57 SE9       30.27F
ALLIANCE       MOCLDY    53  42  66 SE9       30.28F
CHADRON        PTCLDY    60  40  47 S8        30.23F
KIMBALL        PTCLDY    59  40  49 SE12      30.29F
SIDNEY         MOCLDY    60  41  49 SE9       30.31F
$$

NEZ057>060-069>072-079>082-220600-
SOUTHWEST NEBRASKA

CITY           SKY/WX    TMP DP  RH WIND       PRES   REMARKS
NORTH PLATTE   PTCLDY    48  42  80 E7        30.30F
IMPERIAL       CLOUDY    63  42  46 SE8       30.31F
LEXINGTON      PTCLDY    49  45  87 CALM      30.31S
MCCOOK         MOCLDY    58  45  62 E5        30.31S
OGALLALA       MOCLDY    59  45  58 CALM      30.30F
$$

NEZ005>010-023>029-035>040-094-220600-
NORTH CENTRAL NEBRASKA

CITY           SKY/WX    TMP DP  RH WIND       PRES   REMARKS
VALENTINE      PTCLDY    45  38  76 CALM      30.29S HAZE
AINSWORTH      CLEAR     45  39  81 S5        30.30R
BROKEN BOW     PTCLDY    44  41  89 CALM      30.31S
O`NEILL        CLEAR     49  48  95 CALM      30.30S
ORD            CLEAR     46  43  89 CALM      30.29S
THEDFORD       PTCLDY    52  40  63 SE6       30.31S
$$

NEZ041-046>049-061>064-073>077-083>087-220600-
SOUTH CENTRAL NEBRASKA

CITY           SKY/WX    TMP DP  RH WIND       PRES   REMARKS
GRAND ISLAND   CLEAR     51  45  79 CALM      30.31R
AURORA         CLEAR     50  45  83 CALM      30.30S
HASTINGS       PTCLDY    52  45  77 E3        30.30S
HEBRON         PTCLDY    48  45  87 CALM      30.29S
HOLDREGE       PTCLDY    51  44  75 CALM      30.31R
KEARNEY *      PTCLDY    54  43  66 CALM      30.31S
YORK           CLEAR     50  48  93 CALM      30.31R
$$

NEZ011>018-030>034-042>045-220600-
NORTHEAST NEBRASKA

CITY           SKY/WX    TMP DP  RH WIND       PRES   REMARKS
NORFOLK        CLEAR     48  45  89 W3        30.29R
ALBION         CLEAR     46  42  88 CALM      30.30S
BLAIR          CLEAR     55  48  77 CALM      30.27R
COLUMBUS *     CLEAR     46  43  87 CALM      30.30S
FREMONT        CLEAR     53  48  83 CALM      30.28S
TEKAMAH        CLEAR     49  46  90 NW5       30.27R
WAYNE          CLEAR     44  43  95 CALM      30.28S
$$

NEZ050>053-065>068-078-088>093-220600-
SOUTHEAST NEBRASKA

CITY           SKY/WX    TMP DP  RH WIND       PRES   REMARKS
LINCOLN        CLEAR     50  47  89 N3        30.29S
OMAHA EPPLEY   CLEAR     53  51  93 NW3       30.27S
BEATRICE       CLEAR     49  46  86 CALM      30.29S
FALLS CITY     CLEAR     54  50  86 NW3       30.26R
NEBRASKA CITY    N/A     57  42  56 N3        30.27S
PLATTSMOUTH    CLEAR     55  47  74 CALM      30.27R
$$

NEZ044-045-051>053-067-220600-
OMAHA AREA

CITY           SKY/WX    TMP DP  RH WIND       PRES   REMARKS
OMAHA EPPLEY   CLEAR     53  51  93 NW3       30.27S
BLAIR          CLEAR     55  48  77 CALM      30.27R
FREMONT        CLEAR     53  48  83 CALM      30.28S
MILLARD        CLEAR     53  51  93 CALM      30.27R
OFFUTT AFB     CLEAR     49  49 100 CALM      30.27R
PLATTSMOUTH    CLEAR     55  47  74 CALM      30.27R
WAHOO          FAIR      51  48  89 W3        30.28R
$$



USA.gov is the U.S. government's official web portal to all federal, state and local government web resources and services.